Other Public Products
Issued by NWS Grand Forks, ND

Home | Current Version | Previous Version | Text Only | Print | Product List | Glossary Off
Versions: 1 2 3 4 5 6 7 8 9 10 11 12 13 14 15 16 17 18 19 20 21 22 23 24 25 26 27 28 29 30 31 32 33 34 35 36 37 38 39 40 41 42 43 44 45 46 47 48 49 50

000
FPUS83 KFGF 021410
OPUFGF
PRAIRIE TO PINES WEATHER ROUNDUP
NATIONAL WEATHER SERVICE EASTERN NORTH DAKOTA/GRAND FORKS ND
900 AM CDT TUE SEP 02 2014

 **SATELLITE DATA USED TO AUGMENT SKY COVER AT AUTOMATED STATIONS**
 *****  WEATHER ACROSS EASTERN NORTH DAKOTA  *****

CITY           SKY/WX    TMP DP  RH WIND       PRES   REMARKS
GRAND FORKS    PTSUNNY   58  52  80 SW3       29.78R
GRAND FORKS AF MOSUNNY   58  55  89 SW2       29.78S
GRAND CITY NWS   N/A     57 N/A N/A W3          N/A
BUXTON         NOT AVBL
DEVILS LAKE    PTSUNNY   59  50  72 SW6       29.79R
FARGO          SUNNY     59  51  75 SW10      29.83R
WAHPETON ARPT  SUNNY     59  52  77 W3        29.86S
$$

 *****  WEATHER ACROSS CENTRAL AND WESTERN NORTH DAKOTA  *****

CITY           SKY/WX    TMP DP  RH WIND       PRES   REMARKS
JAMESTOWN      SUNNY     59  51  75 SW9       29.82S
BISMARCK       MOSUNNY   57  50  77 SW6       29.84R
MINOT          PTSUNNY   58  52  80 S8        29.74F
MINOT AFB      MOSUNNY   58  56  92 S7        29.73F
GARRISON         N/A     59  55  87 S7        29.77S
WILLISTON      SUNNY     58  49  72 SW10      29.77S
DICKINSON      MOSUNNY   58  46  64 W15       29.82R
HETTINGER      PTSUNNY   55  47  74 CALM      29.89S
$$

 *****  OTHER OBSERVATIONS NORTHEAST NORTH DAKOTA  *****

CITY           SKY/WX    TMP DP  RH WIND       PRES   REMARKS
WALHALLA         N/A     55  52  88 SE5       29.76S
LANGDON        FAIR      50  48  93 S6        29.77F
CAVALIER       FAIR      55  48  76 W7        29.77R
GRAFTON        PTSUNNY   55  52  88 SW7       29.76F
CANDO          FAIR      59  54  82 S6        29.76F
FORT TOTTEN      N/A     56  54  93 CALM      29.95S
ROLLA          FAIR      57  52  82 SW7       29.76S
RUGBY          FAIR      55  54  94 S5        29.76S
 ***** THE ABOVE OBSERVATIONS ARE NON NWS ARE NOT QUALITY
        CONTROLLED AND MAY MIS-REPORT RAIN FOR SNOW...
$$

 *****  OTHER OBSERVATIONS SOUTHEAST NORTH DAKOTA *****

CITY           SKY/WX    TMP DP  RH WIND       PRES   REMARKS
COOPERSTOWN    NOT AVBL
VALLEY CITY    FAIR      59  55  88 SW9       29.83S
OAKES            N/A     57  57 100 S7        29.85F
GWINNER        SUNNY     57  55  94 SW7       29.87S
SHEYENNE NWR     N/A     59  55  86 SW6       29.95S
BUFFALO        NOT AVBL
WYNDMERE       NOT AVBL
 ***** THE ABOVE OBSERVATIONS ARE NON NWS ARE NOT QUALITY
       CONTROLLED AND MAY MIS-REPORT RAIN FOR SNOW...
$$

  *****  WEATHER ACROSS NORTHERN MINNESOTA  *****

CITY           SKY/WX    TMP DP  RH WIND       PRES   REMARKS
FLAG ISLAND    SUNNY     55  50  82 CALM      29.73S
WARROAD        SUNNY     55  52  88 SW3       29.76S
ROSEAU         SUNNY     55  52  88 SW7       29.76S
HALLOCK        PTSUNNY   54  52  94 S9        29.76S
THF RVR FALLS  PTSUNNY   54  50  87 SW7       29.80S
HALSTAD          N/A     56  52  86 S5          N/A
FOSSTON        MOSUNNY   54  52  94 S8        29.83R
BAUDETTE       SUNNY     56  51  84 SW6       29.76R
WASKISH        SUNNY     61  55  82 SW10      29.79R
CROOKSTON      MOSUNNY   55  52  88 S5        29.80S
$$
  *****  WEATHER ACROSS CENTRAL AND WEST MINNESOTA  *****

CITY           SKY/WX    TMP DP  RH WIND       PRES   REMARKS
BEMIDJI        SUNNY     59  52  78 SW7       29.81S
PARK RAPIDS    MOSUNNY   59  56  89 W5        29.85R
WADENA         MOSUNNY   57  55  94 SW3       29.86R
DETROIT LAKES  SUNNY     59  54  82 SW5       29.86R
MOORHEAD       SUNNY     57  55  94 SW5       29.84S
FERGUS FALLS   SUNNY     59  55  88 SW3       29.87S
ELBOW LAKE     FAIR      60  56  88 SW3       29.87S
MORRIS MN      SUNNY     64  57  77 SW3       29.87S
STAPLES        SUNNY     57  55  94 CALM      29.86S
WHEATON        SUNNY     61  55  82 SW5       29.88S
$$
  *****  WEATHER ELSEWHERE ACROSS MINNESOTA  *****

CITY           SKY/WX    TMP DP  RH WIND       PRES   REMARKS
DULUTH         SUNNY     63  52  67 W8        29.83S
INTRNTL FALLS  MOSUNNY   56  53  90 W5        29.77S
ELY            SUNNY     57  52  82 W3        29.80S
CLOQUET        SUNNY     61  52  72 W7        29.84S
BRAINERD       SUNNY     59  55  87 SW8       29.87R
HIBBING        MOSUNNY   56  53  90 SW3       29.83R
ALEXANDRIA     SUNNY     62  56  80 SW5       29.89S
SAINT CLOUD    SUNNY     66  57  72 W3        29.88R
MINNEAPOLIS    MOSUNNY   65  58  78 W6        29.88S
$$

  *****  WEATHER ACROSS SOUTH DAKOTA  *****

CITY           SKY/WX    TMP DP  RH WIND       PRES   REMARKS
SIOUX FALLS    SUNNY     62  57  83 NW6       29.95R
BROOKINGS      NOT AVBL
WATERTOWN      SUNNY     58  54  86 SW5       29.91S
HURON          SUNNY     59  55  87 S5        29.92S
SISSETON         N/A     65  55  70 W12       29.86S
ABERDEEN       SUNNY     55  53  93 S6        29.89S
MITCHELL       SUNNY     59  55  87 S3        29.95R
PIERRE         SUNNY     58  51  78 W15       29.91S
MOBRIDGE       SUNNY     56  52  86 S5        29.86S
RAPID CITY     SUNNY     55  44  66 SW8       29.95F
$$

  *****  SOME WEATHER IN NEARBY STATES *****

CITY           SKY/WX    TMP DP  RH WIND       PRES   REMARKS
GLASGOW MT     MOSUNNY   54  45  71 W6        29.82R
GREAT FALLS MT CLOUDY    55  39  54 SW9       29.88F
CHEYENNE WY    SUNNY     55  43  63 SW7       30.15S
SCOTTSBLUFF NE SUNNY     53  49  86 E5        30.07S
OMAHA NE       MOSUNNY   64  57  78 CALM      30.01R
DES MOINES IA  MOSUNNY   66  59  78 W8        29.96R
DAVENPORT IA   MOSUNNY   71  67  87 NW8       29.94R
CHICAGO IL     PTSUNNY   72  63  73 CALM      29.89R
EAU CLAIRE WI  PTSUNNY   65  61  87 W8        29.87R
LA CROSSE WI   CLOUDY    65  59  81 S12       29.90S
$$

  *****  SOME NATIONAL WEATHER *****

CITY           SKY/WX    TMP DP  RH WIND       PRES   REMARKS
LA GUARDIA NY  PTSUNNY   83  71  67 VRB3      29.92R
RALEIGH NC     MOSUNNY   83  71  67 SW3       30.07F
ATLANTA GA     MOSUNNY   81  72  74 VRB5      30.13S
NEW ORLEANS LA PTSUNNY   85  77  77 S7        30.06S HX  95
OKLAHOMA CITY  TSTM      79  69  71 NE12      29.98R
ALBUQUERQUE NM SUNNY     70  38  31 N7        30.16R
SALT LAKE CITY SUNNY     61  42  49 E8        30.04R
LOS ANGELES CA MOCLDY    70  61  73 E6        29.87R
BOISE ID       CLEAR     57  35  43 SE8       29.96R
SEATTLE WA     CLOUDY    62  53  72 N6        29.96R
$$

*** WEATHER ACROSS MANITOBA...SASKATCHEWAN AND ONTARIO ***
                ***ONTARIO***

CITY           SKY/WX    TMP DP  RH WIND       PRES   REMARKS
GERALDTON      MOSUNNY   61  55  82 W14       29.67R
THUNDER BAY    MOSUNNY   63  55  77 W9        29.74S
SIOUX LOOKOUT  MOSUNNY   57  52  82 W7        29.71S
TORONTO        CLOUDY    75  70  83 SW9       29.84S
BIG TROUT LK     N/A     54  52  94 MISG      29.54R
PICKLE LAKE    MOSUNNY   55  50  82 W8        29.64S
DRYDEN         SUNNY     57  54  88 W9        29.73R
KENORA         MOSUNNY   57  52  82 SW6       29.74R
$$
                *** MANITOBA***

CITY           SKY/WX    TMP DP  RH WIND       PRES   REMARKS
BRANDON        PTSUNNY   55  50  82 CALM      29.72F
DAUPHIN        PTSUNNY   59  50  72 SW6       29.66R
ISLAND LAKE    MOSUNNY   57  52  82 CALM      29.58S
PILOT MOUND      N/A     57  50  77 S5          N/A
THE PAS        PTSUNNY   55  52  88 W8        29.60S
THOMPSON       MOSUNNY   52  50  93 W8        29.52S
WINNIPEG       PTSUNNY   57  48  72 W9        29.74R
CHURCHILL      CLOUDY    50  50 100 SE8       29.49S
GILLAM         PTSUNNY   54  52  94 S6        29.49S
$$
                ***SASKATCHEWAN***

CITY           SKY/WX    TMP DP  RH WIND       PRES   REMARKS
ESTEVAN        PTSUNNY   55  50  82 SW7       29.73R
KINDERSLEY     MOSUNNY   46  45  93 SW3       29.77R
LLOYDMINSTER   MOSUNNY   48  45  87 W9        29.73R
PRINCE ALBERT  PTSUNNY   50  48  93 NW7       29.68R
REGINA         MOSUNNY   54  48  82 NE6       29.72R
YORKTON        NOT AVBL


USA.gov is the U.S. government's official web portal to all federal, state and local government web resources and services.